NOAA 16 DEB, 41249

Orbit data source: Space-Track

NOAA 16 DEB, 41249 is space debris in SSO originally from a launch on Thu, 21 Sep 2000 UTC launched from the Air Force Western Test Range (AFWTR). Debris objects in space refer to the collection of defunct objects orbiting the Earth. Examples of debris include non-operational satellites, rocket bodies, and fragments generated from explosions, collisions, or faulty payload assembly.

Loading next visibility...
Identifier
41249, 2000-055EZ
Orbit
SSO
Country
Flag of USUS
Related business
Manufacturer
Unknown
Mission
Spacecraft
Bus & Motor
Unknown
Mass
Unknown
Launch date (UTC)
2000-09-21 (26 years ago)
Launch vehicle
Unknown
Launch site
Air Force Western Test Range (AFWTR)
Object type
Payload
Rocket body
Debris
Shape & HBR
Unknown shape, 0.1 m
Radar Cross Section
Small (<0.1 m²)

Expand to show TLE details & history
Last TLE update: 11 hours ago

TLE from 11 hours ago
0 NOAA 16 DEB
1 41249U 00055EZ  26144.90515889  .00007574  00000-0  15779-2 0  9996
2 41249  98.9597  15.4623 0031890  97.3786 263.1038 14.59975173542411
Epoch: 2026-05-24T21:43Z
TLE epoch observation values (Epoch: 2026-05-24T21:43:25.728Z)
Latitude
0.00005°
Longitude
167.10449°
Altitude
698.994 km
Speed
7.505 km/s
True Right ascension
01h 01m 50s
True Declination
0° 00' 00"
Sunlit
Object was in daylight at epoch
Visualization orbit readout
Latitude
Unknown
Longitude
Unknown
Altitude
Unknown
Speed
Unknown
Apparent Right ascension
Unknown
Apparent Declination
Unknown
Sunlit
N/A
Visualization observer readout
Local Sidereal Time
17:32:50
Azimuth
Unknown
Elevation
Unknown
Doppler factor
Unknown
Orbital elements
Apogee altitude
712.913 km
Perigee altitude
667.83 km
Semi-major axis
7,068.509 km
Eccentricity
0.00319
Inclination
98.9597°
RAAN
15.4623°
Arg. of periapsis
97.3786°
True anomaly
262.74119°
Mean anomaly
263.1038°
Eccentric anomaly
262.92248°
Mean motion
3.65217 °/min
Orbital period
98.57 mins
BSTAR
0.0015779
Loading maneuver chart data...
Computing Atmospheric mass density...
Loading historical data...
Loading historical data...
Loading historical data...
Loading historical data...
Loading historical data...
Loading historical data...
Loading historical data...

Documentation

Showing up to 5 results
|